Windsor Locks, CT

4:07 AM EST on January 19, 2017 (GMT -0500)
Bradley International

Weather History for KBDL - June, 2013

Change the Weather History Date:

Wednesday, June 12, 2013

  Actual Average Record
Temperature  
Mean Temperature 64 °F 68 °F  
Max Temperature 73 °F 79 °F 97 °F (1973)
Min Temperature 54 °F 56 °F 40 °F (1972)
Degree Days  
Heating Degree Days 1 2  
Month to date heating degree days 21 29  
Since 1 June heating degree days 21 29  
Since 1 July heating degree days 5705 5987  
Cooling Degree Days 0 4  
Month to date cooling degree days 36 39  
Year to date cooling degree days 90 78  
Since 1 June cooling degree days 36 39  
Growing Degree Days 15 (Base 50)    
Moisture  
Dew Point 51 °F    
Average Humidity 62    
Maximum Humidity 80    
Minimum Humidity 44    
Precipitation  
Precipitation T in 0.16 in 2.31 in (1905)
Month to date precipitation 6.51 2.02  
Year to date precipitation 22.65 19.83  
Snow  
Snow 0.00 in 0.00 in 0.00 in (2002)
Month to date snowfall 0.0 0.0  
Since 1 June snowfall 0.0 0.0  
Since 1 July snowfall 56.9 40.5  
Snow Depth 0.00 in    
Sea Level Pressure  
Sea Level Pressure 29.72 in    
Wind  
Wind Speed 12 mph (NW)    
Max Wind Speed 29 mph    
Max Gust Speed 39 mph    
Visibility 10 miles    
Events      
T = Trace of Precipitation, MM = Missing Value Source: NWS Daily Summary

Daily Weather History Graph

Daily Weather History Graph

Search for Another Location

Airport or City:

Trip Planner

Search our weather history database for the weather conditions in past years. The results will help you decide how hot, cold, wet, or windy it might be!

Date:

Astronomy

Jun. 12, 2013 Rise Set
Actual Time 5:14 AM EDT 8:26 PM EDT
Civil Twilight 4:40 AM EDT 9:00 PM EDT
Nautical Twilight 3:56 AM EDT 9:45 PM EDT
Astronomical Twilight 3:03 AM EDT 10:38 PM EDT
Moon 8:54 AM EDT (6/12) 10:57 PM EDT (6/12)
Length of Visible Light 16h 20m
Length of Day
15h 11m
Waxing Crescent, 14% of the Moon is Illuminated
Jun 12
Waxing Crescent
Jun 16
First Quarter
Jun 23
Full
Jun 30
Last Quarter
Jul 8
New

Hourly Weather History & Observations

Time (EDT) Temp. Dew Point Humidity Pressure Visibility Wind Dir Wind Speed Gust Speed Precip Events Conditions
12:51 AM 62.1 °F 54.0 °F 75% 29.62 in 10.0 mi West 17.3 mph - N/A   Scattered Clouds
1:51 AM 62.1 °F 53.1 °F 72% 29.63 in 10.0 mi West 17.3 mph 28.8 mph N/A   Partly Cloudy
2:51 AM 62.1 °F 52.0 °F 70% 29.63 in 10.0 mi WNW 12.7 mph - N/A   Partly Cloudy
3:51 AM 61.0 °F 51.1 °F 70% 29.62 in 10.0 mi West 16.1 mph 23.0 mph N/A   Partly Cloudy
4:51 AM 61.0 °F 51.1 °F 70% 29.63 in 10.0 mi WNW 10.4 mph 24.2 mph N/A   Partly Cloudy
5:51 AM 61.0 °F 51.1 °F 70% 29.65 in 10.0 mi WNW 11.5 mph 20.7 mph N/A   Scattered Clouds
6:51 AM 61.0 °F 52.0 °F 72% 29.68 in 10.0 mi North 5.8 mph - N/A   Mostly Cloudy
7:51 AM 62.1 °F 51.1 °F 67% 29.69 in 10.0 mi NW 6.9 mph - N/A   Scattered Clouds
8:51 AM 66.0 °F 52.0 °F 60% 29.69 in 10.0 mi WNW 19.6 mph 29.9 mph N/A   Scattered Clouds
9:51 AM 66.0 °F 51.1 °F 59% 29.71 in 10.0 mi NW 20.7 mph 28.8 mph N/A   Mostly Cloudy
10:51 AM 69.1 °F 52.0 °F 54% 29.71 in 10.0 mi NW 12.7 mph 20.7 mph N/A   Mostly Cloudy
11:51 AM 70.0 °F 52.0 °F 53% 29.73 in 10.0 mi NNW 15.0 mph 32.2 mph 0.00 in   Scattered Clouds
12:51 PM 70.0 °F 51.1 °F 51% 29.74 in 10.0 mi NNW 23.0 mph 34.5 mph N/A   Mostly Cloudy
1:51 PM 71.1 °F 50.0 °F 47% 29.74 in 10.0 mi NW 24.2 mph 39.1 mph N/A   Mostly Cloudy
2:51 PM 71.1 °F 50.0 °F 47% 29.75 in 10.0 mi NNW 18.4 mph 26.5 mph N/A   Scattered Clouds
3:51 PM 72.0 °F 50.0 °F 46% 29.75 in 10.0 mi NW 17.3 mph 28.8 mph N/A   Scattered Clouds
4:51 PM 73.0 °F 50.0 °F 44% 29.75 in 10.0 mi NNW 12.7 mph 25.3 mph N/A   Scattered Clouds
5:51 PM 71.1 °F 50.0 °F 47% 29.77 in 10.0 mi NW 10.4 mph 20.7 mph N/A   Mostly Cloudy
6:51 PM 71.1 °F 48.9 °F 45% 29.79 in 10.0 mi NNW 12.7 mph - N/A   Scattered Clouds
7:51 PM 69.1 °F 48.0 °F 47% 29.80 in 10.0 mi NNW 4.6 mph - N/A   Partly Cloudy
8:51 PM 64.9 °F 48.9 °F 56% 29.82 in 10.0 mi WNW 3.5 mph - N/A   Partly Cloudy
9:51 PM 62.1 °F 50.0 °F 65% 29.84 in 10.0 mi Calm Calm - N/A   Clear
10:51 PM 57.9 °F 51.1 °F 78% 29.84 in 10.0 mi NW 4.6 mph - N/A   Clear
11:51 PM 60.1 °F 51.1 °F 72% 29.82 in 10.0 mi Calm Calm - N/A   Clear